Location: Bannatyne
(13.0833°N, 59.5333°W)
Time: 06:18:05
(UTC+00:00)

deb Explorer IX - Pass Details

Date: 29 January 2020
Orbit: 549 x 1099 km, 38.8° (Epoch: 17 February)

Event Time Altitude Azimuth Distance (km) Brightness Sun altitude
Rises 21:07:33 0° 228° (SW) 3,043 ? 10.6°
Reaches altitude 10° 21:09:47 10° 227° (SW) 2,203 ? 10.1°
Maximum altitude 21:14:59 81° 140° (SE) 819 ? 9.0°
Drops below altitude 10° 21:21:08 10° 53° (NE) 2,592 ? 7.6°
Sets 21:23:56 0° 53° (NE) 3,622 ? 6.9°
